Temp
20 18 18 17 18 18 18 18 18 17 17 18 17 17 17 17 17 17 17 17 17 16 16 16 16 16 16 16 17 17 17 17 17 17 17 16 17 17 16 17 17 16 17
20 17 18 18 18 18 18 18 18 17 18 18 18 18 17 17 17 17 17 17 17 17 17 16 16 16 16 17 17 17 17 17 17 18 17 17 17 16 16 16 17 17 17
21 17 18 19 18 18 18 17 17 18 18 18 18 18 18 17 17 17 17 17 17 17 17 16 16 17 16 17 17 17 17 17 17 17 17 16 15 17 17 17 17 17 17
21 20 17 19 18 18 18 18 18 18 18 18 18 18 17 17 17 17 17 17 17 17 17 17 17 17 17 17 17 17 17 17 18 18 18 18 16 17 17 18 17 17 17
22 21 19 19 18 18 17 17 18 18 18 18 18 17 18 17 17 17 17 17 17 17 17 17 18 17 17 17 17 18 18 18 18 18 18 17 17 17 18 17 17 16 16
23 20 19 18 18 18 18 18 18 18 18 17 18 18 18 18 17 17 17 17 18 18 17 17 17 17 17 18 17 18 18 18 18 18 18 18 17 18 17 17 17 16 17
22 19 18 18 18 18 17 18 18 18 17 18 18 18 18 18 18 18 17 17 18 17 18 17 18 18 18 18 18 18 18 18 18 19 19 18 18 18 17 17 17 17 17
22 20 18 18 18 18 18 18 18 18 18 17 18 18 18 18 18 18 18 18 18 18 18 17 18 18 18 18 18 18 18 18 19 19 20 18 18 18 18 17 17 17 17
22 21 19 18 18 18 18 18 18 18 18 18 18 18 18 18 18 18 18 18 18 18 18 18 18 18 18 19 19 19 18 18 19 19 20 18 19 19 19 18 17 16 17
22 21 21 20 19 19 17 18 18 18 18 18 18 18 19 19 18 18 18 19 18 18 18 18 18 18 18 18 18 19 19 19 19 19 20 19 19 19 19 18 17 17 17
21 21 22 21 19 18 18 17 18 18 18 18 18 18 18 18 18 18 17 18 18 18 18 18 18 19 18 19 19 19 19 19 20 21 20 20 19 20 20 19 18 18 18
22 21 22 22 20 19 18 18 17 18 18 18 17 18 18 19 19 19 18 19 19 19 19 19 19 19 20 18 20 20 20 20 21 21 20 20 19 19 20 19 19 19 18
22 21 21 20 20 19 19 18 18 18 18 18 18 18 19 19 19 19 19 18 18 19 18 19 19 19 19 20 20 20 20 20 21 21 20 20 19 19 19 19 19 19 19
23 22 22 20 19 19 18 19 18 18 18 18 19 19 18 19 19 19 20 20 20 20 20 19 19 19 19 18 19 19 20 20 21 22 21 20 20 19 19 19 18 18 18
23 22 22 20 19 18 19 19 18 18 18 18 18 18 18 18 18 19 19 19 19 20 20 20 20 19 18 19 19 19 19 20 21 21 21 20 19 19 19 19 19 18 18
23 23 22 20 19 19 19 18 19 18 18 18 18 18 18 18 18 19 18 18 18 19 19 19 19 19 19 19 19 19 20 20 20 20 20 20 20 19 19 19 19 18 18
24 23 22 21 20 19 19 19 20 19 18 19 18 18 19 19 18 18 18 18 19 19 19 19 19 19 18 19 19 19 19 20 20 20 20 20 19 19 20 20 20 19 19
23 22 22 22 22 20 20 20 20 19 19 19 19 19 18 18 18 19 18 19 19 18 19 18 18 18 19 18 19 19 19 20 19 19 19 19 20 20 20 20 20 19 19
23 22 21 21 21 21 20 20 20 20 19 19 20 19 19 18 18 18 19 19 19 19 19 19 19 19 19 19 20 20 20 20 20 19 20 20 21 21 21 21 20 20 19
23 22 21 21 20 20 20 19 21 20 21 20 20 20 19 19 18 18 20 19 18 19 19 20 19 19 19 20 21 22 22 21 21 21 20 20 21 20 20 20 20 20 20
22 22 21 20 21 20 20 21 22 21 21 21 21 20 20 18 18 18 19 19 19 19 19 19 19 19 20 20 21 20 21 21 23 22 22 22 21 21 21 20 20 20 20
22 22 21 20 20 20 21 21 20 22 22 21 20 20 20 18 18 19 19 19 19 19 18 19 19 19 19 20 19 20 20 21 21 22 22 22 23 22 20 21 21 21 20
22 22 21 20 19 19 20 20 20 21 20 20 20 19 19 19 19 18 19 19 19 19 19 19 19 19 19 19 19 19 20 20 19 21 21 22 21 22 22 21 21 20 20
23 22 21 19 19 19 20 21 20 20 21 21 20 20 19 18 18 18 18 18 18 19 19 18 19 19 19 19 19 19 19 18 18 19 20 21 21 20 21 21 21 20 21
23 22 21 19 19 20 19 20 20 20 20 20 20 19 19 19 18 18 20 20 19 19 18 18 18 18 18 18 19 18 18 19 19 18 19 21 22 21 19 20 21 21 21
23 22 21 19 19 19 19 20 20 19 20 20 19 18 19 18 18 19 19 19 19 18 18 18 19 19 19 18 18 19 18 18 18 18 18 21 22 23 21 21 21 20 21
Height
1526 1523 1525 1526 1526 1527 1527 1528 1528 1528 1528 1527 1527 1528 1528 1529 1529 1529 1530 1530 1530 1530 1530 1533 1535 1535 1538 1541 1543 1545 1545 1545 1545 1546 1548 1549 1550 1553 1552 1556 1557 1557 1555
1527 1526 1526 1528 1528 1529 1530 1530 1531 1531 1531 1531 1531 1531 1531 1532 1532 1532 1533 1534 1534 1533 1534 1537 1538 1540 1541 1545 1546 1546 1548 1549 1550 1550 1552 1552 1554 1556 1555 1557 1559 1559 1558
1529 1528 1529 1530 1531 1532 1533 1533 1534 1533 1534 1534 1534 1534 1535 1535 1535 1536 1536 1538 1538 1538 1539 1540 1542 1545 1546 1548 1549 1549 1551 1551 1552 1555 1557 1558 1559 1558 1560 1560 1561 1562 1561
1531 1533 1533 1532 1533 1535 1535 1536 1536 1536 1537 1537 1537 1538 1539 1538 1538 1540 1541 1542 1543 1542 1543 1544 1546 1549 1550 1551 1551 1552 1554 1554 1556 1558 1561 1562 1563 1561 1563 1563 1564 1564 1563
1533 1535 1534 1535 1536 1537 1538 1538 1539 1539 1539 1540 1540 1541 1541 1542 1542 1543 1545 1546 1546 1548 1548 1548 1550 1552 1553 1554 1554 1555 1557 1558 1560 1563 1563 1565 1565 1563 1565 1566 1566 1566 1566
1534 1535 1535 1537 1538 1539 1540 1541 1541 1542 1543 1543 1543 1544 1544 1545 1546 1546 1547 1548 1550 1551 1552 1553 1555 1556 1556 1557 1557 1558 1559 1560 1561 1563 1564 1567 1566 1564 1567 1568 1569 1568 1568
1535 1538 1538 1538 1540 1541 1542 1543 1543 1544 1545 1546 1546 1547 1548 1548 1549 1550 1551 1552 1553 1555 1555 1557 1558 1559 1560 1560 1560 1560 1561 1561 1564 1565 1566 1568 1566 1566 1567 1569 1570 1570 1571
1538 1541 1541 1540 1542 1543 1543 1544 1545 1546 1547 1548 1549 1549 1550 1551 1552 1553 1554 1555 1556 1557 1558 1559 1559 1561 1562 1562 1561 1562 1563 1562 1567 1567 1569 1569 1568 1567 1568 1571 1572 1572 1572
1540 1543 1544 1544 1544 1544 1545 1545 1546 1548 1549 1550 1550 1551 1552 1554 1555 1555 1556 1557 1558 1559 1560 1560 1562 1562 1563 1563 1564 1564 1564 1564 1569 1568 1569 1570 1569 1568 1569 1572 1572 1574 1574
1542 1544 1546 1547 1548 1549 1547 1547 1547 1548 1550 1551 1552 1553 1554 1556 1557 1558 1559 1559 1559 1561 1562 1562 1563 1564 1565 1565 1565 1565 1566 1567 1569 1569 1571 1570 1569 1570 1570 1572 1573 1574 1574
1544 1545 1546 1548 1549 1548 1549 1549 1549 1549 1551 1552 1553 1555 1556 1559 1559 1559 1560 1561 1561 1562 1563 1563 1564 1565 1566 1566 1567 1567 1567 1566 1570 1570 1569 1570 1571 1571 1571 1572 1573 1574 1575
1544 1546 1547 1548 1549 1548 1549 1550 1551 1553 1554 1554 1554 1556 1558 1560 1561 1561 1561 1561 1562 1562 1563 1564 1565 1566 1566 1566 1567 1568 1568 1569 1570 1570 1567 1570 1571 1571 1571 1572 1573 1575 1575
1543 1546 1548 1549 1550 1550 1550 1551 1552 1552 1554 1555 1556 1557 1559 1560 1561 1561 1561 1561 1562 1563 1563 1563 1564 1565 1566 1568 1569 1569 1569 1570 1569 1570 1568 1570 1571 1571 1571 1572 1573 1574 1575
1543 1546 1548 1549 1551 1551 1551 1551 1551 1552 1552 1554 1556 1556 1557 1559 1561 1561 1563 1563 1563 1563 1564 1564 1565 1566 1566 1566 1567 1568 1569 1569 1569 1570 1566 1568 1570 1570 1571 1572 1572 1573 1573
1543 1546 1548 1549 1550 1551 1551 1551 1549 1550 1549 1551 1554 1556 1557 1558 1559 1561 1562 1562 1562 1562 1564 1564 1565 1565 1564 1565 1566 1565 1566 1567 1567 1568 1569 1566 1567 1569 1569 1570 1571 1571 1571
1543 1546 1548 1549 1549 1551 1552 1550 1548 1544 1550 1548 1552 1554 1556 1557 1558 1560 1560 1560 1561 1562 1562 1563 1563 1564 1563 1563 1562 1563 1564 1564 1565 1565 1567 1565 1566 1566 1567 1567 1568 1569 1569
1543 1545 1547 1549 1550 1550 1550 1549 1549 1548 1541 1551 1551 1554 1554 1555 1557 1558 1558 1559 1559 1561 1561 1560 1560 1560 1560 1562 1562 1561 1562 1562 1562 1562 1562 1563 1562 1563 1564 1564 1565 1566 1566
1542 1545 1547 1549 1550 1551 1552 1551 1549 1549 1552 1549 1553 1556 1556 1556 1556 1558 1559 1559 1560 1560 1560 1559 1560 1559 1558 1559 1559 1558 1558 1557 1557 1557 1558 1558 1559 1558 1560 1561 1562 1563 1563
1541 1543 1545 1548 1549 1551 1551 1552 1552 1551 1552 1552 1555 1555 1556 1557 1557 1556 1559 1559 1558 1560 1559 1559 1558 1558 1557 1557 1557 1556 1555 1554 1553 1552 1554 1556 1557 1558 1556 1556 1558 1559 1560
1539 1542 1544 1546 1548 1550 1552 1552 1553 1552 1553 1554 1555 1556 1556 1557 1556 1555 1558 1558 1558 1558 1559 1559 1555 1557 1555 1557 1556 1554 1552 1549 1548 1548 1549 1550 1552 1553 1554 1554 1554 1556 1556
1537 1539 1542 1543 1545 1549 1551 1552 1552 1553 1554 1555 1556 1554 1554 1555 1556 1555 1556 1557 1557 1557 1557 1556 1557 1556 1556 1555 1554 1551 1548 1546 1548 1550 1547 1545 1545 1546 1549 1552 1553 1554 1552
1534 1537 1539 1541 1542 1546 1549 1551 1551 1552 1554 1555 1553 1554 1553 1553 1553 1553 1554 1553 1554 1555 1553 1553 1553 1554 1554 1554 1553 1549 1545 1546 1547 1539 1545 1541 1541 1543 1544 1549 1551 1552 1551
1532 1535 1538 1540 1542 1545 1547 1550 1551 1553 1553 1554 1554 1553 1554 1553 1553 1554 1550 1550 1551 1551 1552 1551 1551 1551 1550 1551 1551 1550 1546 1550 1548 1536 1533 1533 1534 1541 1543 1545 1546 1547 1548
1531 1533 1536 1538 1541 1544 1547 1549 1550 1552 1552 1552 1554 1553 1554 1552 1551 1552 1551 1551 1550 1550 1549 1549 1550 1549 1550 1551 1550 1548 1545 1545 1549 1542 1526 1529 1533 1536 1539 1537 1541 1542 1543
1528 1532 1534 1535 1539 1543 1546 1548 1551 1551 1551 1553 1553 1553 1552 1551 1551 1551 1549 1548 1548 1548 1548 1548 1549 1549 1550 1550 1551 1548 1545 1541 1544 1544 1539 1536 1535 1534 1517 1536 1534 1540 1538
1527 1530 1533 1535 1538 1541 1543 1546 1548 1549 1552 1552 1552 1551 1550 1550 1549 1548 1548 1547 1546 1547 1546 1546 1545 1546 1547 1547 1547 1546 1546 1545 1543 1546 1547 1542 1538 1534 1531 1529 1534 1536 1538
Wind_Speed
11 12 14 14 14 14 14 13 14 16 18 20 21 20 19 18 18 18 18 17 18 24 19 17 17 18 19 20 21 20 19 19 21 20 18 18 20 22 23 19 16 12 14
14 13 15 14 13 14 13 15 14 16 19 20 20 20 19 17 17 18 18 20 20 18 14 17 19 19 21 21 22 23 23 22 22 21 18 20 19 19 17 18 12 15 16
15 14 14 12 12 12 12 14 15 16 17 18 19 19 19 18 17 21 23 23 22 20 18 19 20 20 23 23 22 22 23 23 24 22 20 13 13 16 15 13 15 15 15
14 13 12 12 12 10 11 12 13 14 15 16 16 17 17 20 21 22 23 23 21 21 22 21 22 22 19 20 19 20 22 23 24 19 14 14 12 15 13 14 14 14 13
15 13 10 12 12 11 11 11 12 13 13 14 15 16 17 20 20 20 22 22 20 20 21 21 20 18 18 17 17 18 20 25 21 15 13 11 11 14 12 13 12 14 13
16 13 12 12 11 10 9 10 12 11 13 12 13 14 15 18 18 19 20 19 18 19 19 19 18 17 17 16 16 18 23 22 18 11 15 12 10 12 10 10 9 11 11
16 11 12 11 10 9 9 10 10 10 11 12 12 13 14 15 16 17 18 15 17 18 18 17 16 16 15 15 16 16 17 21 14 14 11 8 10 11 11 9 10 9 9
13 12 10 11 9 9 9 9 9 9 9 11 12 11 12 13 13 14 15 15 15 15 15 14 13 13 13 13 14 13 14 18 11 12 11 8 8 11 10 8 8 9 9
12 11 8 7 9 7 8 8 8 8 8 9 10 10 10 9 10 10 10 11 11 11 10 10 10 11 10 11 10 11 12 15 8 9 8 6 7 10 9 8 9 8 8
12 11 9 7 7 5 7 6 7 7 7 7 7 8 9 9 7 8 6 8 7 8 8 7 7 7 6 6 8 9 12 13 8 9 8 5 5 6 6 6 7 6 6
11 10 8 6 5 11 8 5 7 6 8 7 6 9 12 7 8 5 8 3 6 6 5 3 2 2 3 5 4 9 5 5 5 5 9 1 3 5 4 5 5 4 5
11 10 9 6 5 4 5 6 7 3 3 3 5 5 6 6 8 8 3 4 3 3 3 2 3 2 2 4 4 1 3 1 5 5 7 4 2 3 3 4 4 4 4
11 9 9 8 8 2 2 4 4 2 4 4 5 6 4 4 4 4 3 2 1 4 3 6 3 3 4 4 5 6 4 4 5 3 9 9 7 4 4 4 4 5 5
11 10 9 7 6 4 2 5 2 1 2 5 4 5 4 4 4 4 6 4 6 5 5 1 5 7 5 7 7 7 8 7 7 6 9 11 10 7 7 7 7 7 7
11 10 9 7 7 5 6 1 2 2 4 2 8 4 6 6 5 4 5 6 6 6 4 6 6 6 7 5 8 9 8 10 10 10 9 11 11 12 13 13 11 11 10
11 10 9 8 7 5 5 3 3 7 2 5 7 7 7 4 5 9 8 7 5 7 5 7 6 7 8 9 12 10 11 10 10 10 12 16 14 12 13 14 14 12 12
11 10 9 8 7 6 4 2 3 5 8 8 3 3 3 3 2 4 3 2 3 6 7 9 9 10 9 7 11 10 10 11 11 16 16 14 15 13 13 10 14 13 12
11 10 9 7 6 5 3 1 2 4 4 9 5 4 2 2 3 2 3 1 4 2 7 4 3 9 8 7 8 11 12 10 9 11 13 11 11 16 16 14 12 15 13
12 14 10 9 9 7 6 2 2 4 3 4 5 2 1 1 1 4 0 2 2 2 6 3 5 4 2 6 5 8 8 10 9 10 9 11 11 10 10 14 11 10 13
14 12 11 10 10 9 7 5 3 5 3 2 3 4 4 2 4 2 2 5 2 6 4 5 9 6 9 6 7 9 10 13 9 11 12 11 13 13 12 13 10 12 10
17 15 13 16 18 9 8 6 5 5 6 5 5 6 4 3 5 7 3 7 5 9 8 7 6 8 7 7 11 12 13 15 11 10 9 11 12 6 10 12 8 12 16
14 15 13 12 14 15 10 9 8 6 7 6 6 7 5 6 6 7 6 8 7 7 8 8 4 7 7 7 6 10 9 10 6 9 8 5 6 3 7 8 10 9 11
14 14 13 11 13 13 10 9 7 6 4 6 6 7 2 6 3 9 7 6 8 7 9 8 7 6 3 5 6 6 7 5 10 7 9 5 3 3 7 10 11 12 12
12 13 13 12 14 13 13 8 11 8 4 5 3 7 3 4 4 3 3 4 5 5 7 4 5 4 3 5 4 7 8 10 4 15 10 10 7 11 14 9 11 13 12
12 13 13 13 15 15 14 11 8 9 2 4 4 5 3 3 3 4 7 8 7 5 5 4 2 2 2 4 5 8 10 9 9 15 22 16 11 15 18 9 3 12 14
13 14 14 15 15 15 12 15 12 6 5 5 4 4 4 4 2 6 5 5 5 5 4 4 7 6 8 9 8 8 9 8 6 9 15 19 19 17 13 12 10 13 11
Wind_Direction
119 118 119 100 95 90 87 91 85 78 80 82 86 83 84 87 94 103 108 113 95 76 77 87 97 100 111 118 117 115 109 109 106 100 106 106 102 103 93 84 78 103 104
121 124 118 104 98 94 96 92 91 85 84 85 84 81 78 82 94 99 107 109 99 91 87 99 103 104 105 108 107 105 105 101 94 89 101 104 110 108 102 108 124 96 96
123 122 121 106 103 97 99 97 96 95 91 89 85 81 76 78 97 101 103 108 101 100 103 106 107 101 103 105 104 103 104 99 90 90 81 93 102 103 110 113 91 94 97
118 122 122 110 107 100 99 102 103 98 95 91 90 86 79 81 97 103 105 104 101 97 100 104 103 106 107 107 107 104 105 95 92 93 95 103 102 98 98 93 93 88 91
120 130 129 115 116 105 100 98 101 103 104 98 92 88 88 89 96 102 107 109 106 105 101 104 106 106 105 103 105 104 104 94 93 100 106 98 110 100 96 93 91 95 103
123 129 125 121 118 112 107 100 101 103 107 106 98 96 92 93 96 99 104 105 107 110 108 106 105 106 103 100 101 106 104 93 91 98 98 105 126 104 107 103 101 98 94
117 118 123 122 118 113 113 107 108 107 105 106 105 103 97 98 103 104 105 105 110 114 114 111 110 106 103 103 101 104 108 102 105 104 104 117 113 117 103 103 106 105 107
118 129 120 121 120 115 109 109 115 118 107 106 103 108 109 105 105 110 112 110 111 117 117 113 109 110 109 102 98 96 105 102 102 119 106 122 118 107 107 104 99 103 102
125 121 116 122 118 108 110 106 110 119 122 112 110 112 116 116 115 115 120 120 117 125 123 116 105 113 110 99 98 104 98 109 113 120 110 141 115 107 110 116 105 107 102
127 126 127 117 106 119 104 107 106 109 116 127 114 102 98 99 104 94 109 130 130 130 131 133 118 110 112 111 86 96 99 110 129 124 141 204 121 122 117 125 119 119 120
139 133 129 132 145 166 141 102 76 95 89 96 108 111 90 116 89 96 160 189 156 157 172 162 167 159 132 74 101 104 94 141 147 152 172 244 137 133 131 144 145 148 140
150 145 144 127 143 89 97 129 145 102 106 106 128 114 106 139 176 146 192 198 196 196 194 220 218 211 128 251 340 76 51 155 172 166 217 255 182 158 156 165 173 178 175
152 149 149 146 141 167 94 100 101 177 144 181 172 157 190 167 172 187 217 192 183 25 224 323 6 34 249 214 228 246 257 238 232 219 241 259 261 237 222 212 203 198 201
152 153 154 144 151 139 128 124 139 123 207 172 211 174 207 178 196 193 206 184 199 247 223 355 242 234 244 250 246 238 245 245 243 233 252 273 266 251 250 242 242 234 225
159 157 157 163 164 155 125 128 315 156 135 135 161 209 223 202 216 198 231 222 227 186 228 230 236 257 257 251 254 247 251 245 243 245 259 262 275 273 260 252 254 248 245
164 165 172 167 170 161 146 185 235 328 93 152 177 172 199 215 196 225 219 220 197 223 220 237 239 255 266 258 247 260 259 258 255 250 237 267 273 280 278 257 243 247 249
169 172 182 178 184 177 184 224 312 295 97 98 71 164 140 156 266 236 203 215 275 227 240 244 253 247 255 264 268 267 263 252 252 249 234 237 266 272 278 286 250 250 251
164 171 180 182 190 194 189 236 319 359 70 81 113 142 135 176 138 81 162 336 229 257 292 280 268 269 283 257 274 278 263 286 268 261 261 263 254 260 263 269 278 254 256
190 200 190 194 199 201 209 201 238 279 135 161 121 131 142 213 236 133 255 272 266 250 286 271 294 324 315 274 278 257 281 272 270 251 239 243 237 236 263 260 271 270 251
202 204 203 199 206 192 208 204 204 276 164 109 118 203 271 228 242 202 237 248 252 251 268 266 290 307 313 296 306 289 279 276 272 249 241 233 235 250 237 258 241 275 264
204 204 207 220 212 202 206 204 197 196 196 212 217 255 255 237 250 255 232 276 273 269 273 259 271 297 288 282 290 284 277 250 247 234 227 240 243 234 244 260 238 261 272
197 197 201 200 206 198 205 202 201 195 216 222 249 272 271 244 247 274 244 224 255 264 258 283 278 250 292 281 288 307 303 329 288 227 233 226 226 235 260 232 237 250 264
198 198 203 205 199 202 199 197 207 205 208 226 236 267 196 285 292 293 274 271 271 269 290 278 272 283 261 302 301 311 315 47 340 288 215 190 348 234 234 241 255 248 246
204 199 199 201 185 188 197 195 215 208 247 207 238 249 272 273 274 301 303 266 283 256 250 268 288 265 305 322 302 303 328 329 334 306 336 9 300 257 249 234 265 269 293
193 192 193 194 185 189 203 186 217 218 224 237 245 276 224 261 221 223 279 284 277 275 256 233 244 175 284 300 301 315 318 330 333 304 312 322 281 282 315 263 205 277 274
185 179 177 183 188 190 202 206 207 220 223 237 244 250 271 286 297 309 291 313 300 248 247 232 239 278 294 276 272 275 288 272 263 273 286 301 303 314 296 339 299 277 257